Terminal Aerodrome Forecast
Issued by NWS

Home | Current Version | Previous Version | Text Only | Print | Product List | Glossary On
Versions: 1 2 3 4 5 6 7 8 9 10 11 12 13 14 15 16 17 18 19 20 21 22 23 24 25
000
FTUS41 KGYX 282200 AAB
TAFPSM
TAF AMD
KPSM 282226Z 2822/2918 14012KT P6SM SCT040 BKN100
     FM282315 24015G35KT 1 1/2SM +TSRA BR OVC020CB
     FM290000 17010KT 1 1/2SM SHRA BR VCTS BKN010 OVC035CB
     FM290200 20008KT 4SM -SHRA BR SCT005 BKN025
     FM290400 25005KT 1SM BR BKN005
     FM291100 25005KT 4SM BR SCT005 BKN040
     FM291200 27010KT P6SM BKN040=

USA.gov is the U.S. government's official web portal to all federal, state and local government web resources and services.